Overview Statistics Trail Chart Weather Telemetry Raw packets
 

This is the latest recevied weather packets stored in our database for station/object OK2KJT-11. If no packets are shown the sender has not sent any weather packets the latest 10 day(s).

<< 50 51 52 53 54 55 56 >>
Time Temp. Humidity Pressure Rain* Wind** Luminosity Snow
1787931137 26.11° C 39% 1017.2 hPa - - - -
1787930544 26.11° C 39% 1017.1 hPa - - - -
1787929937 26.67° C 39% 1017.1 hPa - - - -
1787929338 26.67° C 38% 1017.2 hPa - - - -
1787928738 26.67° C 38% 1017.1 hPa - - - -
1787928138 26.67° C 37% 1017 hPa - - - -
1787927538 27.22° C 37% 1017 hPa - - - -
1787926939 26.67° C 38% 1017.1 hPa - - - -
1787926339 26.67° C 38% 1017.3 hPa - - - -
1787925739 26.67° C 37% 1017.2 hPa - - - -
1787925139 26.67° C 37% 1017.3 hPa - - - -
1787924540 27.22° C 37% 1017.6 hPa - - - -
1787923940 27.22° C 37% 1017.7 hPa - - - -
1787923340 27.78° C 38% 1018 hPa - - - -
1787922740 27.22° C 37% 1017.9 hPa - - - -
1787922141 26.67° C 38% 1018.1 hPa - - - -
1787921541 26.67° C 38% 1018 hPa - - - -
1787920945 26.67° C 38% 1018.2 hPa - - - -
1787920342 26.11° C 40% 1018.3 hPa - - - -
1787919742 25.56° C 39% 1018.3 hPa - - - -
1787919142 26.67° C 39% 1018.6 hPa - - - -
1787918542 25.56° C 39% 1018.5 hPa - - - -
1787917942 25.56° C 41% 1018.7 hPa - - - -
1787917343 25.56° C 39% 1018.6 hPa - - - -
1787916743 25.56° C 41% 1018.6 hPa - - - -

* Rain since midnight (hover to see other rain measurements)
** Current wind speed in m/s (hover to see current wind gust speed)